Creek Data

    Home     View Charts     View Raw Data     Messages

ID Distance Battery Voltage Battery Current Internal Temp Internal Humidity External Temp Solar Input rssi snr Time Stamp Record
36758 15.1 3.92 0 46 37 50 5.1 -83 9 04/03/2025 08:45 AM 18616
36757 15.1 3.91 0 45 37 48 5.1 -83 7 04/03/2025 08:30 AM 18615
36756 15.0 3.91 0 43 37 53 5.1 -83 8 04/03/2025 08:15 AM 18614
36755 15.0 3.92 0 42 37 52 5.1 -82 8 04/03/2025 08:00 AM 18613
36754 15.0 3.92 0 40 38 47 5.1 -81 7 04/03/2025 07:45 AM 18612
36753 15.1 3.98 28 38 38 46 4.5 -82 8 04/03/2025 07:30 AM 18611
36752 15.0 3.98 0 37 39 41 4.5 -83 8 04/03/2025 07:15 AM 18610
36751 14.9 3.82 0 35 40 39 4.5 -83 8 04/03/2025 07:00 AM 18609
36750 15.0 3.90 -10 34 40 36 1.8 -81 8 04/03/2025 06:45 AM 18608
36749 0.0 3.92 -5 34 40 36 0.4 -82 8 04/03/2025 06:31 AM 18607
36748 15.0 3.83 -5 35 40 37 0 -83 8 04/03/2025 06:15 AM 18606
36747 15.1 3.83 -5 35 40 36 0 -84 8 04/03/2025 06:00 AM 18605
36746 15.0 3.83 -5 36 40 37 0.1 -83 8 04/03/2025 05:45 AM 18604
36745 15.0 3.83 -5 36 40 38 0 -83 8 04/03/2025 05:30 AM 18603
36744 14.9 3.84 -5 35 40 38 0.1 -83 8 04/03/2025 05:15 AM 18602
36743 14.9 3.84 -5 35 40 38 0.1 -82 8 04/03/2025 05:00 AM 18601
36742 15.0 3.84 -5 35 40 37 0 -81 8 04/03/2025 04:45 AM 18600
36741 15.0 3.84 -5 36 40 37 0 -80 7 04/03/2025 04:30 AM 18599
36740 15.0 3.84 -5 36 40 38 0 -81 8 04/03/2025 04:15 AM 18598
36739 14.9 3.92 -5 37 40 39 0.1 -81 8 04/03/2025 04:00 AM 18597
36738 0.0 3.92 -5 37 40 39 0.1 -81 8 04/03/2025 03:45 AM 18596
36737 0.0 3.92 -5 36 40 39 0 -80 8 04/03/2025 03:30 AM 18595
36736 0.0 3.84 -5 36 40 38 0 -80 9 04/03/2025 03:16 AM 18594
36735 0.0 3.84 -5 37 40 38 0 -80 8 04/03/2025 03:00 AM 18593
36734 0.0 3.84 -5 37 41 39 0 -80 7 04/03/2025 02:46 AM 18592